GW6650 Weather Reports


Display with metric or nautical units.
time (UTC)temp
F
wind
direction
speed
MPH
gust
MPH
rain 1hr
in
rain 24hr
in
rain mn
in
humidity
%
barometer
mb
20260510133800 77 251 2.0 5.0 0.00 0.00 0.00 93 1016.5
20260510133256 76 244 3.0 3.0 0.00 0.00 0.00 95 1016.6
20260510132751 76 356 2.0 2.0 0.00 0.00 0.00 96 1016.5
20260510132250 76 276 1.0 4.0 0.00 0.00 0.00 96 1016.5
20260510131746 75 8 2.0 4.0 0.00 0.00 0.00 97 1016.4
20260510131244 75 268 2.0 3.0 0.00 0.00 0.00 97 1016.4
20260510130740 75 207 2.0 2.0 0.00 0.00 0.00 97 1016.4
20260510130237 75 257 2.0 3.0 0.00 0.00 0.00 98 1016.1
20260510125734 74 254 1.0 1.0 0.00 0.00 0.00 98 1016.1
20260510125230 74 269 0.0 3.0 0.00 0.00 0.00 98 1016.1
20260510124726 74 235 1.0 3.0 0.00 0.00 0.00 98 1015.9
20260510124224 74 351 1.0 2.0 0.00 0.00 0.00 98 1015.9
20260510123719 73 269 0.0 2.0 0.00 0.00 0.00 98 1016.0
20260510123215 73 293 0.0 0.0 0.00 0.00 0.00 98 1016.0
20260510122712 73 117 0.0 0.0 0.00 0.00 0.00 98 1015.9
20260510122208 73 173 0.0 0.0 0.00 0.00 0.00 98 1015.8
20260510121704 73 246 0.0 0.0 0.00 0.00 0.00 98 1015.7
20260510121202 72 212 1.0 1.0 0.00 0.00 0.00 98 1015.5
20260510120659 72 22 0.0 0.0 0.00 0.00 0.00 98 1015.6
20260510120155 72 26 0.0 1.0 0.00 0.00 0.00 98 1015.5
20260510115646 72 309 0.0 1.0 0.00 0.00 0.00 98 1015.7
20260510115144 72 0 1.0 2.0 0.00 0.00 0.00 98 1015.4
20260510114640 71 22 0.0 0.0 0.00 0.00 0.00 99 1015.3
20260510114137 70 336 0.0 1.0 0.00 0.00 0.00 98 1015.1
20260510113631 70 66 0.0 0.0 0.00 0.00 0.00 98 1015.2
20260510113129 70 129 0.0 2.0 0.00 0.00 0.00 98 1015.0
20260510112625 70 224 0.0 1.0 0.00 0.00 0.00 98 1015.1
20260510112122 70 205 2.0 2.0 0.00 0.00 0.00 98 1014.9
20260510111618 70 233 0.0 2.0 0.00 0.00 0.00 98 1014.9
20260510111114 70 151 1.0 1.0 0.00 0.00 0.00 98 1015.0
20260510110610 70 302 0.0 1.0 0.00 0.00 0.00 98 1014.8
20260510110107 70 218 0.0 1.0 0.00 0.00 0.00 98 1015.1
20260510105602 70 117 0.0 1.0 0.00 0.00 0.00 98 1014.9
20260510105058 70 119 0.0 0.0 0.00 0.00 0.00 98 1014.8
20260510104554 71 131 1.0 1.0 0.00 0.00 0.00 98 1014.5
20260510104051 70 53 2.0 2.0 0.00 0.00 0.00 98 1014.4
20260510103548 70 98 0.0 2.0 0.00 0.00 0.00 98 1014.6
20260510103044 70 264 0.0 1.0 0.00 0.00 0.00 98 1014.6
20260510102539 70 309 0.0 1.0 0.00 0.00 0.00 98 1014.5
20260510102036 70 40 0.0 2.0 0.00 0.00 0.00 98 1014.4
20260510101534 70 326 0.0 1.0 0.00 0.00 0.00 98 1014.3
20260510101032 70 311 0.0 1.0 0.00 0.00 0.00 98 1014.3
20260510100528 70 103 0.0 0.0 0.00 0.00 0.00 98 1014.3
20260510100025 70 103 0.0 0.0 0.00 0.00 0.00 98 1014.4
20260510095521 70 103 0.0 0.0 0.00 0.00 0.00 98 1014.2
20260510095020 70 103 0.0 0.0 0.00 0.00 0.00 98 1014.1
20260510094515 70 27 0.0 2.0 0.00 0.00 0.00 98 1014.1
20260510094011 70 41 1.0 2.0 0.00 0.00 0.00 98 1014.1
20260510093507 70 6 0.0 0.0 0.00 0.00 0.00 98 1014.0
20260510093004 70 345 0.0 0.0 0.00 0.00 0.00 98 1014.2
20260510092501 70 322 0.0 0.0 0.00 0.00 0.00 98 1014.2
20260510092000 70 250 0.0 1.0 0.00 0.00 0.00 98 1014.0
20260510091457 70 124 0.0 0.0 0.00 0.00 0.00 98 1013.7
20260510090953 70 117 0.0 0.0 0.00 0.00 0.00 98 1013.4
20260510090450 71 135 0.0 1.0 0.00 0.00 0.00 98 1013.6
20260510085945 71 89 0.0 0.0 0.00 0.00 0.00 98 1013.8
20260510085441 71 309 0.0 0.0 0.00 0.00 0.00 98 1013.6
20260510084937 71 34 0.0 0.0 0.00 0.00 0.00 98 1013.5
20260510084434 71 269 0.0 0.0 0.00 0.00 0.00 98 1013.5
20260510083931 71 326 0.0 0.0 0.00 0.00 0.00 98 1013.5
20260510083428 71 326 0.0 0.0 0.00 0.00 0.00 98 1013.5
20260510082922 71 0 0.0 1.0 0.00 0.00 0.00 98 1013.4
20260510082421 71 14 0.0 0.0 0.00 0.00 0.00 98 1013.4
20260510081919 71 15 0.0 0.0 0.00 0.00 0.00 98 1013.3
20260510081416 71 282 1.0 1.0 0.00 0.00 0.00 98 1013.5
20260510080913 71 293 0.0 0.0 0.00 0.00 0.00 98 1013.3
20260510080411 71 304 0.0 0.0 0.00 0.00 0.00 98 1013.1
20260510075909 71 304 0.0 1.0 0.00 0.00 0.00 98 1013.3
20260510075406 71 230 0.0 0.0 0.00 0.00 0.00 98 1013.2
20260510074903 71 297 0.0 1.0 0.00 0.00 0.00 98 1013.2
20260510074400 71 166 0.0 1.0 0.00 0.00 0.00 98 1012.9
20260510073856 71 117 0.0 0.0 0.00 0.00 0.00 98 1012.9
20260510073352 71 156 0.0 0.0 0.00 0.00 0.00 98 1012.7
20260510072848 71 157 0.0 0.0 0.00 0.00 0.00 98 1013.1
20260510072345 71 135 0.0 1.0 0.00 0.00 0.00 98 1012.9
20260510071841 71 164 0.0 0.0 0.00 0.00 0.00 98 1013.0
20260510071338 71 50 0.0 0.0 0.00 0.00 0.00 97 1012.9
20260510070837 71 135 0.0 0.0 0.00 0.00 0.00 98 1012.8
20260510070333 71 63 0.0 0.0 0.00 0.00 0.00 97 1012.8
20260510065833 71 77 0.0 0.0 0.00 0.00 0.00 97 1013.0
20260510065330 71 168 0.0 0.0 0.00 0.00 0.00 97 1013.0
20260510064826 71 235 0.0 0.0 0.00 0.00 0.00 97 1013.0
20260510064325 71 230 0.0 1.0 0.00 0.00 0.00 97 1013.1
20260510063821 71 89 0.0 0.0 0.00 0.00 0.00 97 1013.2
20260510063317 71 297 0.0 1.0 0.00 0.00 0.00 97 1013.3
20260510062814 71 150 0.0 1.0 0.00 0.00 0.00 97 1013.5
20260510062309 71 60 0.0 2.0 0.00 0.00 0.00 97 1013.5
20260510061805 71 195 0.0 1.0 0.00 0.00 0.00 97 1013.6
20260510061302 71 117 0.0 0.0 0.00 0.00 0.00 97 1013.5
20260510060758 71 142 0.0 0.0 0.00 0.00 0.00 97 1013.9
20260510060255 71 135 0.0 0.0 0.00 0.00 0.00 97 1013.9
20260510055752 71 107 0.0 0.0 0.00 0.00 0.00 97 1013.9
20260510055250 71 107 0.0 2.0 0.00 0.00 0.00 97 1014.0
20260510054749 71 54 0.0 0.0 0.00 0.00 0.00 97 1014.0
20260510054246 71 290 0.0 1.0 0.00 0.00 0.00 97 1014.2
20260510053745 71 32 0.0 2.0 0.00 0.00 0.00 97 1014.2
20260510053242 71 55 0.0 0.0 0.00 0.00 0.00 97 1014.3
20260510052738 71 89 0.0 1.0 0.00 0.00 0.00 97 1014.4
20260510052234 71 50 0.0 0.0 0.00 0.00 0.00 97 1014.3
20260510051730 71 72 0.0 0.0 0.00 0.00 0.00 97 1014.6
20260510051226 71 72 0.0 0.0 0.00 0.00 0.00 97 1014.4
20260510050723 72 72 0.0 0.0 0.00 0.00 0.00 97 1014.7
20260510050221 72 72 0.0 0.0 0.00 0.00 0.00 97 1014.7
20260510045717 72 224 0.0 0.0 0.00 0.00 0.00 97 1014.7
20260510045214 72 224 0.0 0.0 0.00 0.00 0.00 97 1014.9
20260510044710 72 142 0.0 0.0 0.00 0.00 0.00 97 1014.9
20260510044209 72 212 0.0 2.0 0.00 0.00 0.00 97 1014.9
20260510043703 72 333 0.0 0.0 0.00 0.00 0.00 97 1014.9
20260510043200 72 164 0.0 1.0 0.00 0.00 0.00 97 1014.9
20260510042657 71 243 0.0 0.0 0.00 0.00 0.00 97 1015.0
20260510042154 71 220 1.0 2.0 0.00 0.00 0.00 97 1015.1
20260510041651 71 309 0.0 0.0 0.00 0.00 0.00 97 1014.9
20260510041148 71 242 0.0 0.0 0.00 0.00 0.00 97 1015.0
20260510040645 71 164 0.0 0.0 0.00 0.00 0.00 97 1014.8
20260510040142 71 129 0.0 1.0 0.00 0.00 0.00 97 1014.8
20260510035637 71 322 0.0 0.0 0.00 0.27 0.27 97 1014.7
20260510035132 71 322 0.0 0.0 0.00 0.27 0.27 97 1015.0
20260510034630 71 322 0.0 0.0 0.00 0.27 0.27 96 1015.0
20260510034127 71 290 0.0 0.0 0.00 0.27 0.27 97 1015.1
20260510033623 71 309 0.0 0.0 0.00 0.27 0.27 97 1015.0
20260510033121 71 143 1.0 1.0 0.00 0.27 0.27 97 1014.8
20260510032617 71 129 0.0 0.0 0.00 0.27 0.27 96 1014.8
20260510032112 71 309 0.0 0.0 0.00 0.27 0.27 96 1015.0
20260510031607 71 135 0.0 1.0 0.00 0.27 0.27 96 1015.0
20260510031104 71 230 0.0 0.0 0.00 0.27 0.27 96 1015.1
20260510030559 71 249 0.0 1.0 0.00 0.27 0.27 96 1015.0
20260510030057 71 256 0.0 0.0 0.00 0.27 0.27 96 1014.8
20260510025554 71 243 0.0 1.0 0.00 0.27 0.27 96 1015.2
20260510025052 71 186 0.0 1.0 0.00 0.27 0.27 96 1014.7
20260510024548 71 62 0.0 0.0 0.00 0.27 0.27 96 1014.7
20260510024044 71 202 0.0 0.0 0.00 0.27 0.27 96 1014.8
20260510023540 71 258 0.0 2.0 0.00 0.27 0.27 96 1014.7
20260510023039 71 197 0.0 2.0 0.00 0.27 0.27 96 1014.5
20260510022538 71 205 0.0 2.0 0.00 0.27 0.27 96 1014.4
20260510022037 72 89 0.0 1.0 0.00 0.27 0.27 96 1014.3
20260510021535 72 127 0.0 0.0 0.00 0.27 0.27 96 1014.5
20260510021032 72 224 0.0 0.0 0.00 0.27 0.27 96 1014.5
20260510020526 72 306 0.0 1.0 0.00 0.27 0.27 96 1014.4
20260510020022 72 154 0.0 2.0 0.00 0.27 0.27 96 1014.2
20260510015518 72 224 0.0 2.0 0.00 0.27 0.27 95 1014.1
20260510015014 72 76 0.0 2.0 0.00 0.27 0.27 95 1014.0
20260510014511 72 54 2.0 2.0 0.00 0.27 0.27 95 1013.7
20260510014008 72 89 1.0 1.0 0.00 0.27 0.27 95 1013.9
20260510013502 72 83 2.0 2.0 0.00 0.27 0.27 95 1013.8
20260510012958 72 89 0.0 0.0 0.00 0.27 0.27 95 1013.7
20260510012453 72 89 0.0 3.0 0.00 0.27 0.27 95 1013.6
20260510011948 72 269 0.0 0.0 0.00 0.27 0.27 95 1013.6
20260510011443 72 209 1.0 1.0 0.00 0.27 0.27 95 1014.0
20260510010939 73 63 3.0 3.0 0.00 0.27 0.27 95 1013.3
20260510010437 73 74 0.0 2.0 0.00 0.27 0.27 95 1013.5
20260510005933 73 52 2.0 3.0 0.00 0.27 0.27 95 1013.2
20260510005429 73 69 2.0 2.0 0.00 0.27 0.27 95 1013.2
20260510004927 73 69 3.0 4.0 0.00 0.27 0.27 95 1013.2
20260510004424 73 29 2.0 3.0 0.00 0.27 0.27 95 1013.3
20260510003922 73 31 3.0 3.0 0.00 0.27 0.27 95 1013.4
20260510003419 73 6 0.0 2.0 0.00 0.27 0.27 95 1013.7
20260510002918 73 343 0.0 2.0 0.00 0.27 0.27 94 1013.7
20260510002415 73 347 3.0 4.0 0.00 0.27 0.27 94 1013.8
20260510001911 73 14 1.0 3.0 0.00 0.27 0.27 94 1013.6
20260510001409 73 345 2.0 2.0 0.00 0.27 0.27 94 1013.6
20260510000906 73 333 0.0 3.0 0.00 0.27 0.27 94 1013.6
20260510000403 73 5 2.0 2.0 0.00 0.27 0.27 94 1013.6
20260509235859 73 12 3.0 3.0 0.00 0.27 0.27 94 1013.5
20260509235356 74 0 4.0 4.0 0.00 0.27 0.27 94 1013.3
20260509234852 74 345 2.0 4.0 0.00 0.27 0.27 94 1013.4
20260509234349 74 6 3.0 3.0 0.00 0.27 0.27 94 1013.4
20260509233847 74 8 1.0 4.0 0.00 0.27 0.27 94 1013.3
20260509233345 74 336 1.0 3.0 0.00 0.27 0.27 94 1013.4
20260509232840 74 322 1.0 3.0 0.00 0.27 0.27 94 1013.3
20260509232338 74 283 0.0 2.0 0.00 0.27 0.27 94 1013.3
20260509231834 74 329 2.0 3.0 0.00 0.27 0.27 93 1013.3
20260509231331 74 283 0.0 2.0 0.00 0.27 0.27 93 1013.3
20260509230829 74 340 0.0 3.0 0.00 0.27 0.27 93 1013.3
20260509230326 74 314 1.0 2.0 0.00 0.27 0.27 93 1013.1
20260509225820 74 329 2.0 3.0 0.00 0.27 0.27 93 1013.1
20260509225318 74 358 2.0 3.0 0.00 0.27 0.27 93 1013.1
20260509224814 74 350 2.0 4.0 0.00 0.27 0.27 93 1013.1
20260509224310 75 343 4.0 4.0 0.00 0.27 0.27 93 1013.2
20260509223807 75 331 1.0 4.0 0.00 0.27 0.27 93 1013.1
20260509223304 75 346 2.0 4.0 0.00 0.27 0.27 93 1013.1
20260509222800 75 4 3.0 3.0 0.00 0.27 0.27 93 1013.2
20260509222256 75 327 0.0 2.0 0.00 0.27 0.27 94 1013.3
20260509221752 75 309 0.0 2.0 0.00 0.27 0.27 94 1013.3
20260509221249 75 295 1.0 2.0 0.00 0.27 0.27 94 1013.1
20260509220744 75 346 2.0 2.0 0.00 0.27 0.27 94 1013.1
20260509220241 75 333 0.0 3.0 0.00 0.27 0.27 94 1013.0
20260509215736 75 10 2.0 4.0 0.00 0.27 0.27 95 1013.1
20260509215233 75 359 2.0 4.0 0.00 0.27 0.27 95 1012.9
20260509214730 75 333 2.0 3.0 0.00 0.27 0.27 94 1012.8
20260509214227 75 16 2.0 3.0 0.00 0.27 0.27 94 1012.8
20260509213724 75 11 2.0 2.0 0.00 0.27 0.27 94 1012.8
20260509213220 75 26 4.0 5.0 0.00 0.27 0.27 95 1012.6
20260509212718 75 27 4.0 4.0 0.02 0.27 0.27 94 1012.8
20260509212214 75 50 4.0 4.0 0.02 0.27 0.27 94 1012.8
20260509211710 75 25 1.0 2.0 0.00 0.26 0.26 94 1012.9
20260509211207 75 45 1.0 2.0 0.00 0.26 0.26 94 1012.9
20260509210704 75 12 0.0 2.0 0.00 0.26 0.26 94 1012.9
20260509210201 75 50 0.0 1.0 0.00 0.26 0.26 94 1012.9
20260509205701 75 25 0.0 1.0 0.00 0.26 0.26 94 1012.9
20260509205200 75 229 0.0 2.0 0.00 0.26 0.26 94 1013.0
20260509204657 75 68 2.0 5.0 0.00 0.26 0.26 93 1012.8
20260509204153 75 108 0.0 2.0 0.00 0.26 0.26 93 1013.0
20260509203649 75 265 2.0 3.0 0.12 0.26 0.26 93 1013.2
20260509203148 75 157 0.0 1.0 0.64 0.26 0.26 92 1012.9
20260509202643 76 165 2.0 2.0 1.18 0.24 0.24 91 1012.8
20260509202139 76 285 1.0 6.0 0.69 0.16 0.16 91 1012.9
20260509201634 76 317 0.0 1.0 0.05 0.05 0.05 90 1012.8
20260509201132 77 168 1.0 4.0 0.02 0.04 0.04 89 1012.6
20260509200627 77 130 0.0 4.0 0.05 0.04 0.04 88 1012.6
20260509200122 78 102 0.0 2.0 0.09 0.04 0.04 88 1013.0
20260509195618 78 208 1.0 2.0 0.07 0.03 0.03 86 1013.0
20260509195113 79 248 0.0 2.0 0.05 0.02 0.02 84 1013.1
20260509194612 80 195 2.0 2.0 0.02 0.02 0.02 82 1012.9
20260509194111 80 240 0.0 2.0 0.00 0.02 0.02 80 1012.9
20260509193606 80 264 1.0 3.0 0.00 0.02 0.02 77 1012.8
20260509193102 80 306 2.0 3.0 0.00 0.02 0.02 77 1012.7
20260509192559 81 341 1.0 2.0 0.00 0.02 0.02 77 1012.4
20260509192054 81 282 0.0 2.0 0.00 0.02 0.02 78 1012.7
20260509191554 81 225 2.0 2.0 0.00 0.02 0.02 77 1012.6
20260509191050 81 229 1.0 2.0 0.00 0.02 0.02 77 1012.7
20260509190547 81 231 1.0 2.0 0.00 0.02 0.02 77 1012.5
20260509190045 81 248 1.0 2.0 0.00 0.02 0.02 78 1012.6
20260509185543 80 198 1.0 2.0 0.00 0.02 0.02 78 1012.7
20260509185039 80 214 0.0 2.0 0.00 0.02 0.02 78 1012.7
20260509184537 80 249 1.0 2.0 0.00 0.02 0.02 78 1012.8
20260509184033 80 245 1.0 2.0 0.00 0.02 0.02 76 1012.8
20260509183528 81 221 0.0 3.0 0.00 0.02 0.02 76 1012.9
20260509183025 81 249 1.0 2.0 0.00 0.02 0.02 76 1013.0
20260509182521 81 76 0.0 2.0 0.00 0.02 0.02 76 1013.1
20260509182018 81 209 0.0 3.0 0.00 0.02 0.02 75 1013.2
20260509181517 81 308 1.0 2.0 0.00 0.02 0.02 74 1013.0
20260509181014 82 252 1.0 2.0 0.00 0.02 0.02 75 1013.2
20260509180508 82 253 1.0 2.0 0.00 0.02 0.02 74 1013.1
20260509180007 81 237 2.0 3.0 0.00 0.02 0.02 74 1013.3
20260509175502 82 238 1.0 2.0 0.00 0.02 0.02 73 1013.5
20260509174959 82 255 2.0 2.0 0.00 0.02 0.02 74 1013.4
20260509174455 82 214 1.0 4.0 0.00 0.02 0.02 74 1013.3
20260509173950 82 228 2.0 4.0 0.00 0.02 0.02 74 1013.5
20260509173450 82 212 2.0 4.0 0.00 0.02 0.02 74 1013.5
20260509172947 83 264 2.0 4.0 0.00 0.02 0.02 73 1013.4
20260509172445 82 326 0.0 3.0 0.00 0.02 0.02 75 1013.5
20260509171940 82 227 0.0 2.0 0.00 0.02 0.02 75 1013.2
20260509171436 82 151 2.0 2.0 0.00 0.02 0.02 75 1013.5
20260509170933 82 16 2.0 2.0 0.00 0.02 0.02 74 1013.4
20260509170428 82 217 2.0 3.0 0.00 0.02 0.02 76 1013.7
20260509165924 82 258 1.0 3.0 0.00 0.02 0.02 75 1013.6
20260509165418 82 315 0.0 4.0 0.00 0.02 0.02 75 1013.7
20260509164914 82 196 2.0 5.0 0.00 0.02 0.02 74 1013.5
20260509164410 83 273 4.0 4.0 0.00 0.02 0.02 73 1013.6
20260509163907 82 7 1.0 3.0 0.00 0.02 0.02 74 1013.6
20260509163404 81 277 1.0 2.0 0.00 0.02 0.02 75 1013.5
20260509162903 81 211 2.0 2.0 0.00 0.02 0.02 76 1013.5
20260509162401 81 217 0.0 2.0 0.00 0.02 0.02 77 1013.7
20260509161857 81 103 0.0 3.0 0.00 0.02 0.02 77 1013.6
20260509161354 81 235 0.0 2.0 0.00 0.02 0.02 77 1013.9
20260509160849 81 226 0.0 3.0 0.00 0.02 0.02 76 1013.7
20260509160345 81 203 0.0 2.0 0.00 0.02 0.02 77 1013.9
20260509155840 81 233 1.0 3.0 0.00 0.02 0.02 78 1014.0
20260509155337 81 232 2.0 5.0 0.00 0.02 0.02 78 1014.2
20260509154834 81 254 3.0 3.0 0.00 0.02 0.02 78 1013.9
20260509154330 81 211 3.0 4.0 0.00 0.02 0.02 77 1013.8
20260509153827 81 124 0.0 3.0 0.00 0.02 0.02 79 1013.8
20260509153324 81 251 1.0 5.0 0.00 0.02 0.02 78 1013.8
20260509152821 81 321 1.0 2.0 0.00 0.02 0.02 79 1013.8
20260509152317 81 281 2.0 3.0 0.00 0.02 0.02 77 1013.7
20260509151815 81 343 0.0 1.0 0.00 0.02 0.02 79 1013.7
20260509151310 80 272 0.0 2.0 0.00 0.02 0.02 80 1013.7
20260509150809 79 148 0.0 4.0 0.00 0.02 0.02 81 1013.8
20260509150307 79 228 2.0 3.0 0.00 0.02 0.02 81 1013.9
20260509145803 79 56 0.0 3.0 0.00 0.02 0.02 81 1013.6
20260509145306 79 341 1.0 3.0 0.00 0.02 0.02 82 1013.7
20260509144800 79 86 0.0 2.0 0.00 0.02 0.02 83 1013.4
20260509144257 78 226 0.0 3.0 0.00 0.02 0.02 83 1014.0
20260509143754 78 166 2.0 2.0 0.00 0.02 0.02 83 1013.8
20260509143252 78 259 1.0 4.0 0.00 0.02 0.02 83 1013.9
20260509142747 78 252 2.0 3.0 0.00 0.02 0.02 83 1013.9
20260509142243 78 315 0.0 1.0 0.00 0.02 0.02 86 1013.8
20260509141739 77 235 0.0 2.0 0.00 0.02 0.02 86 1014.0
20260509141237 77 235 2.0 3.0 0.00 0.02 0.02 86 1013.9
20260509140733 77 247 0.0 4.0 0.00 0.02 0.02 86 1013.8
20260509140230 77 212 2.0 3.0 0.00 0.02 0.02 86 1013.9
20260509135728 77 258 2.0 2.0 0.00 0.02 0.02 86 1013.8
20260509135226 77 236 3.0 3.0 0.00 0.02 0.02 87 1013.8
20260509134722 77 219 0.0 3.0 0.00 0.02 0.02 87 1013.5
20260509134220 77 240 1.0 2.0 0.00 0.02 0.02 88 1013.6